Regional Weather Roundup
Issued by NWS

Home | Current Version | Previous Version | Graphics & Text | Print | Product List | Glossary On
Versions: 1 2 3 4 5 6 7 8 9 10 11 12 13 14 15 16 17 18 19 20 21 22 23 24 25 26 27 28 29 30 31 32 33 34 35 36 37 38 39 40 41 42 43 44 45 46 47 48 49 50
469
ASUS43 KIND 071359
RWRIN

WEATHER ROUNDUP FOR INDIANA
NATIONAL WEATHER SERVICE INDIANAPOLIS IN
900 AM EST SUN FEB 07 2016

NOTE: "FAIR" INDICATES FEW OR NO CLOUDS BELOW 12,000 FEET WITH NO
SIGNIFICANT WEATHER AND/OR OBSTRUCTIONS TO VISIBILITY.

* - STATION DOES NOT REPORT WEATHER SUCH AS PRECIPITATION OR FOG.

+ - STATION NOT QUALITY CONTROLLED BY THE NATIONAL WEATHER SERVICE.
    USE DATA WITH CAUTION...ESPECIALLY DEWPOINT AND RELATIVE
    HUMIDITY OBSERVATIONS.

INZ001>003-010>013-019-020-071500-
NORTHWEST INDIANA

CITY           SKY/WX    TMP DP  RH WIND       PRES   REMARKS
GARY /AIRPORT/ PTSUNNY   39  28  65 S18       29.88F
RENSSELAER +   CLOUDY    36  28  75 SW14      29.93F

$$

LMZ046-743>745-071500-
SOUTHERN LAKE MICHIGAN

STATION/POSITION TIME  TEMP    WIND        PRES    WAVE
                       AIR SEA DIR/SP/G            HT
                 (UTC) (F)     (DEG/KT/KT) (MB)    (FT)
BURNS HARBOR     1300   38     190/ 14/ 22 1012.9F
MICHIGAN CITY    1300   38     160/ 14/ 17   N/A

$$

INZ004-005-014>016-021>024-071500-
NORTH CENTRAL INDIANA

CITY           SKY/WX    TMP DP  RH WIND       PRES   REMARKS
ELKHART        MOSUNNY   36  27  69 SW6       29.92F
GOSHEN         CLOUDY    35  27  72 S12       29.91F WCI  27
PERU/GRISSOM   MOSUNNY   36  28  71 SW10      29.95F
SOUTH BEND     MOSUNNY   36  27  69 SW12      29.90F

$$

INZ006>009-017-018-025>027-071500-
NORTHEAST INDIANA

CITY           SKY/WX    TMP DP  RH WIND       PRES   REMARKS
FORT WAYNE     MOSUNNY   35  27  72 S12       29.97F WCI  27

$$

INZ028-029-035-036-043>045-051>053-071500-
WEST CENTRAL INDIANA

CITY           SKY/WX    TMP DP  RH WIND       PRES   REMARKS
GREENCASTLE +  CLOUDY    36  18  48 SW6       30.02S
LAFAYETTE      MOSUNNY   36  26  67 S6        29.96F
TERRE HAUTE    MOSUNNY   37  23  56 S8        30.03S

$$

INZ030>032-037>040-046>048-054>057-064-065-071500-
CENTRAL INDIANA

CITY           SKY/WX    TMP DP  RH WIND       PRES   REMARKS
GREENWOOD *+   MOSUNNY   37  27  65 S8        30.04S
INDIANAPOLIS   MOSUNNY   38  23  55 S8        30.01R
-EAGLE CREEK   MOSUNNY   37  23  56 S8        30.01S
KOKOMO *+        N/A     36  27  69 SW14      29.97F
MT COMFORT *+  MOSUNNY   34  25  69 S9        30.03R WCI  26
SHELBYVILLE    SUNNY     36  23  59 S12       30.04S

$$

INZ033-034-041-042-049-050-058-059-071500-
EAST CENTRAL INDIANA

CITY           SKY/WX    TMP DP  RH WIND       PRES   REMARKS
MUNCIE         SUNNY     38  23  55 SW8       30.01R

$$

INZ060-061-067>069-081>083-085>088-071500-
SOUTHWEST INDIANA

CITY           SKY/WX    TMP DP  RH WIND       PRES   REMARKS
EVANSVILLE     SUNNY     39  26  59 SW8       30.12S
HUNTINGBURG *+ CLOUDY    36  25  64 S10       30.11F

$$

INZ062-063-066-070>080-084-089>092-071500-
SOUTH CENTRAL AND SOUTHEAST INDIANA

CITY           SKY/WX    TMP DP  RH WIND       PRES   REMARKS
BLOOMINGTON    CLOUDY    39  22  50 SW9       30.05F
MADISON *+     CLOUDY    34  27  75 S6        30.12F WCI  29
SEYMOUR +      SUNNY     37  23  56 S8        30.08F

$$





USA.gov is the U.S. government's official web portal to all federal, state and local government web resources and services.